Regional Weather Roundup
Issued by NWS Nashville, TN

Home | Current Version | Previous Version | Text Only | Print | Product List | Glossary On
Versions: 1 2 3 4 5 6 7 8 9 10 11 12 13 14 15 16 17 18 19 20 21 22 23 24 25 26 27 28 29 30 31 32 33 34 35 36 37 38 39 40 41 42 43 44 45 46 47 48 49 50
000
ASUS44 KOHX 250605
RWROHX
MIDDLE TENNESSEE HOURLY WEATHER ROUNDUP
NATIONAL WEATHER SERVICE NASHVILLE TN
100 AM CDT FRI APR 25 2014

NOTE: "FAIR" INDICATES FEW OR NO CLOUDS BELOW 12,000 FEET WITH
NO SIGNIFICANT WEATHER AND/OR OBSTRUCTIONS TO VISIBILITY.

* THESE REPORTS ARE NOT UNDER NWS QUALITY CONTROL AND MAY NOT
  REPORT WEATHER SUCH AS PRECIPITATION AND FOG.


TNZ005>011-023>034-057-059-062>066-078-080-250700
...NORTHERN MIDDLE TENNESSEE...

CITY           SKY/WX    TMP DP  RH WIND       PRES   REMARKS
CLARKSVILLE    CLOUDY    63  59  87 S8        29.69F
COLUMBIA       MOCLDY    64  64 100 S5        29.74F
CROSSVILLE     MOCLDY    67  47  48 S6        29.83F
GALLATIN         N/A     62  61  97 S15       29.76F
DICKSON          N/A     61  59  94 S8        29.73S
NASHVILLE      CLOUDY    61  59  93 S9        29.75F
PORTLAND         N/A     61  57  88 S10       29.73F
SMYRNA         MOCLDY    61  61 100 S6        29.77F
SPARTA         PTCLDY    63  57  82 CALM      29.78F
$$
TNZ056-058-060-061-075>077-079-093>097-250700
...SOUTHERN MIDDLE TENNESSEE...

CITY           SKY/WX    TMP DP  RH WIND       PRES   REMARKS
FAYETTEVILLE     N/A     65  57  75 W8        29.79S
LEWISBURG      CLOUDY    62  59  90 S10       29.76F
MCMINNVILLE      N/A     68  57  67 CALM      29.77F
MURFREESBORO     N/A     62  60  93 S5        29.78F
SHELBYVILLE    CLOUDY    63  61  94 SE5       29.80F
TULLAHOMA      CLEAR     63  57  82 CALM      29.80R
WINCHESTER     PTCLDY    70  57  64 S10       29.79F
$$


...KEY TO REMARKS...
VSB - VISIBILITY IN MILES
WCI - WIND CHILL INDEX
HX  - HEAT INDEX




USA.gov is the U.S. government's official web portal to all federal, state and local government web resources and services.